QPF
0.04 0.03 0.04 0.04 0.04 0.04 0.05 0.05 0.06 0.05 0.04 0.03 0.02 0.03 0.04 0.04 0.05 0.04 0.04 0.05 0.05 0.06 0.07 0.09 0.11 0.12 0.12 0.11 0.11 0.11 0.11 0.11 0.11 0.12 0.12 0.11 0.10 0.08
0.02 0.02 0.02 0.03 0.03 0.04 0.04 0.05 0.06 0.05 0.04 0.03 0.03 0.04 0.04 0.04 0.05 0.04 0.03 0.04 0.04 0.04 0.05 0.06 0.07 0.08 0.09 0.09 0.09 0.08 0.07 0.08 0.10 0.10 0.09 0.08 0.07 0.07
0.01 0.01 0.02 0.02 0.03 0.03 0.04 0.05 0.04 0.04 0.04 0.04 0.03 0.04 0.04 0.04 0.04 0.04 0.03 0.03 0.04 0.04 0.05 0.05 0.06 0.06 0.07 0.07 0.07 0.07 0.07 0.07 0.08 0.08 0.07 0.07 0.08 0.07
0.02 0.02 0.02 0.01 0.02 0.02 0.03 0.04 0.04 0.04 0.03 0.04 0.04 0.05 0.04 0.04 0.04 0.03 0.02 0.03 0.03 0.04 0.04 0.04 0.05 0.05 0.05 0.05 0.05 0.05 0.04 0.04 0.04 0.04 0.04 0.04 0.04 0.03
0.02 0.03 0.03 0.02 0.03 0.03 0.04 0.03 0.03 0.03 0.04 0.03 0.04 0.04 0.04 0.04 0.04 0.04 0.03 0.02 0.02 0.02 0.03 0.03 0.03 0.03 0.03 0.03 0.03 0.02 0.02 0.02 0.01 0.01 0.02 0.02 0.02 0.02
0.02 0.02 0.03 0.02 0.02 0.02 0.03 0.03 0.03 0.04 0.04 0.04 0.03 0.03 0.03 0.03 0.03 0.04 0.03 0.02 0.02 0.01 0.01 0.01 0.01 0.01 0.00 0.00 0.00 0.00 0.00 0.00 0.00 0.00 0.00 0.00 0.00 0.00
0.02 0.01 0.02 0.02 0.01 0.02 0.03 0.03 0.03 0.03 0.04 0.05 0.04 0.04 0.03 0.02 0.03 0.02 0.03 0.02 0.02 0.01 0.01 0.01 0.01 0.01 0.01 0.00 0.00 0.00 0.00 0.00 0.00 0.00 0.00 0.00 0.00 0.00
0.03 0.02 0.01 0.01 0.01 0.02 0.03 0.03 0.03 0.03 0.04 0.05 0.05 0.05 0.05 0.04 0.03 0.02 0.03 0.03 0.03 0.01 0.02 0.02 0.01 0.02 0.02 0.01 0.00 0.00 0.00 0.00 0.00 0.00 0.00 0.00 0.00 0.00
0.03 0.02 0.01 0.01 0.01 0.01 0.02 0.02 0.03 0.03 0.03 0.04 0.06 0.06 0.06 0.05 0.04 0.03 0.03 0.03 0.03 0.01 0.02 0.03 0.02 0.02 0.01 0.00 0.00 0.00 0.00 0.00 0.00 0.00 0.00 0.00 0.00 0.00
0.02 0.02 0.02 0.02 0.01 0.02 0.02 0.02 0.02 0.02 0.02 0.02 0.04 0.04 0.03 0.03 0.03 0.02 0.02 0.02 0.02 0.01 0.01 0.03 0.02 0.02 0.01 0.00 0.00 0.00 0.00 0.00 0.00 0.00 0.00 0.00 0.00 0.00
0.01 0.01 0.01 0.01 0.01 0.02 0.03 0.03 0.02 0.02 0.01 0.01 0.02 0.02 0.01 0.01 0.01 0.02 0.02 0.03 0.03 0.02 0.02 0.02 0.02 0.02 0.02 0.01 0.00 0.00 0.00 0.00 0.00 0.00 0.00 0.00 0.00 0.00
0.02 0.01 0.01 0.01 0.01 0.01 0.03 0.04 0.03 0.02 0.01 0.01 0.02 0.02 0.02 0.02 0.01 0.02 0.03 0.03 0.03 0.04 0.02 0.01 0.01 0.01 0.02 0.02 0.01 0.00 0.00 0.00 0.00 0.00 0.00 0.00 0.00 0.00
0.04 0.03 0.02 0.01 0.01 0.01 0.02 0.02 0.01 0.01 0.01 0.02 0.02 0.03 0.03 0.03 0.02 0.01 0.01 0.01 0.02 0.03 0.01 0.01 0.01 0.01 0.01 0.02 0.01 0.01 0.01 0.01 0.00 0.00 0.00 0.00 0.00 0.00
0.04 0.03 0.02 0.01 0.01 0.01 0.01 0.01 0.01 0.01 0.01 0.02 0.02 0.02 0.02 0.02 0.02 0.01 0.01 0.01 0.01 0.01 0.00 0.00 0.01 0.01 0.01 0.01 0.01 0.01 0.01 0.01 0.01 0.01 0.01 0.00 0.00 0.00
0.01 0.02 0.01 0.01 0.01 0.01 0.01 0.01 0.01 0.01 0.02 0.02 0.02 0.01 0.01 0.01 0.01 0.01 0.00 0.00 0.00 0.00 0.00 0.00 0.00 0.00 0.00 0.01 0.01 0.00 0.00 0.00 0.00 0.00 0.01 0.01 0.01 0.01
0.01 0.00 0.00 0.00 0.00 0.00 0.00 0.00 0.01 0.01 0.01 0.01 0.02 0.02 0.01 0.01 0.01 0.00 0.00 0.00 0.00 0.00 0.00 0.00 0.00 0.00 0.00 0.00 0.00 0.00 0.00 0.00 0.00 0.00 0.00 0.01 0.01 0.01
0.00 0.00 0.00 0.00 0.00 0.00 0.00 0.00 0.00 0.00 0.00 0.00 0.01 0.01 0.01 0.00 0.00 0.00 0.00 0.00 0.00 0.00 0.00 0.00 0.00 0.00 0.00 0.00 0.00 0.00 0.00 0.00 0.00 0.00 0.00 0.01 0.01 0.01
0.00 0.00 0.00 0.00 0.00 0.00 0.00 0.00 0.00 0.00 0.00 0.00 0.00 0.00 0.00 0.00 0.00 0.00 0.00 0.00 0.00 0.00 0.00 0.00 0.00 0.00 0.00 0.00 0.00 0.00 0.00 0.00 0.00 0.00 0.00 0.00 0.00 0.00
0.00 0.00 0.00 0.00 0.00 0.00 0.00 0.00 0.00 0.00 0.00 0.00 0.00 0.00 0.00 0.00 0.00 0.00 0.00 0.00 0.00 0.00 0.00 0.00 0.00 0.00 0.00 0.00 0.00 0.00 0.00 0.00 0.00 0.00 0.00 0.00 0.00 0.00
0.00 0.00 0.00 0.00 0.00 0.00 0.00 0.00 0.00 0.00 0.00 0.00 0.00 0.00 0.00 0.00 0.00 0.00 0.00 0.00 0.00 0.00 0.00 0.00 0.00 0.00 0.00 0.00 0.00 0.00 0.00 0.00 0.00 0.00 0.00 0.00 0.00 0.00
0.00 0.00 0.00 0.00 0.00 0.00 0.00 0.00 0.00 0.00 0.00 0.00 0.00 0.00 0.00 0.00 0.00 0.00 0.00 0.00 0.00 0.00 0.00 0.00 0.00 0.00 0.00 0.00 0.00 0.00 0.00 0.00 0.00 0.00 0.00 0.00 0.00 0.00
0.00 0.00 0.00 0.00 0.00 0.00 0.00 0.00 0.00 0.00 0.00 0.00 0.00 0.00 0.00 0.00 0.00 0.00 0.00 0.00 0.00 0.00 0.00 0.00 0.00 0.00 0.00 0.00 0.00 0.00 0.00 0.00 0.00 0.00 0.00 0.00 0.00 0.00
0.00 0.00 0.00 0.00 0.00 0.00 0.00 0.00 0.00 0.00 0.00 0.00 0.00 0.00 0.00 0.00 0.00 0.00 0.00 0.00 0.00 0.00 0.00 0.00 0.00 0.00 0.00 0.00 0.00 0.00 0.00 0.00 0.00 0.00 0.00 0.00 0.00 0.00
MSLP
1018.11 1017.97 1017.83 1017.70 1017.59 1017.54 1017.59 1017.76 1018.07 1018.50 1019.01 1019.55 1020.04 1020.39 1020.55 1020.46 1020.12 1019.57 1018.86 1018.08 1017.34 1016.74 1016.34 1016.19 1016.31 1016.69 1017.27 1018.01 1018.84 1019.72 1020.59 1021.42 1022.22 1022.96 1023.65 1024.28 1024.86 1025.37
1018.01 1017.84 1017.66 1017.49 1017.35 1017.28 1017.32 1017.50 1017.83 1018.29 1018.86 1019.48 1020.06 1020.53 1020.82 1020.89 1020.72 1020.34 1019.80 1019.17 1018.57 1018.07 1017.74 1017.64 1017.77 1018.12 1018.66 1019.33 1020.09 1020.87 1021.63 1022.36 1023.04 1023.66 1024.22 1024.73 1025.18 1025.56
1017.94 1017.73 1017.51 1017.31 1017.15 1017.07 1017.11 1017.30 1017.64 1018.14 1018.76 1019.44 1020.11 1020.69 1021.11 1021.34 1021.34 1021.15 1020.79 1020.35 1019.90 1019.53 1019.29 1019.24 1019.38 1019.70 1020.17 1020.76 1021.40 1022.06 1022.70 1023.30 1023.84 1024.32 1024.75 1025.12 1025.44 1025.70
1017.90 1017.66 1017.43 1017.21 1017.04 1016.96 1017.01 1017.20 1017.57 1018.09 1018.73 1019.45 1020.18 1020.84 1021.38 1021.74 1021.90 1021.88 1021.71 1021.45 1021.16 1020.91 1020.77 1020.76 1020.90 1021.18 1021.58 1022.06 1022.58 1023.10 1023.60 1024.06 1024.47 1024.82 1025.12 1025.37 1025.58 1025.74
1017.92 1017.66 1017.41 1017.19 1017.03 1016.96 1017.02 1017.23 1017.60 1018.12 1018.78 1019.51 1020.26 1020.97 1021.57 1022.02 1022.31 1022.43 1022.42 1022.31 1022.16 1022.03 1021.97 1022.00 1022.13 1022.36 1022.68 1023.05 1023.45 1023.84 1024.20 1024.53 1024.82 1025.06 1025.26 1025.42 1025.54 1025.62
1018.02 1017.74 1017.49 1017.27 1017.12 1017.07 1017.13 1017.35 1017.71 1018.23 1018.86 1019.57 1020.31 1021.01 1021.63 1022.13 1022.49 1022.71 1022.81 1022.82 1022.79 1022.75 1022.75 1022.80 1022.93 1023.11 1023.34 1023.61 1023.89 1024.16 1024.41 1024.63 1024.82 1024.98 1025.12 1025.22 1025.29 1025.33
1018.19 1017.90 1017.65 1017.44 1017.30 1017.25 1017.32 1017.53 1017.88 1018.36 1018.94 1019.60 1020.28 1020.94 1021.54 1022.04 1022.42 1022.69 1022.86 1022.95 1022.99 1023.02 1023.06 1023.13 1023.23 1023.37 1023.53 1023.70 1023.88 1024.05 1024.21 1024.35 1024.48 1024.59 1024.69 1024.78 1024.83 1024.86
1018.43 1018.14 1017.88 1017.67 1017.54 1017.49 1017.56 1017.75 1018.06 1018.48 1019.00 1019.57 1020.18 1020.76 1021.30 1021.75 1022.12 1022.40 1022.60 1022.73 1022.82 1022.88 1022.95 1023.01 1023.09 1023.18 1023.28 1023.38 1023.47 1023.57 1023.67 1023.76 1023.86 1023.95 1024.05 1024.13 1024.19 1024.23
1018.72 1018.43 1018.18 1017.97 1017.83 1017.77 1017.82 1017.97 1018.23 1018.58 1019.01 1019.50 1020.00 1020.50 1020.95 1021.35 1021.67 1021.93 1022.12 1022.27 1022.37 1022.45 1022.52 1022.58 1022.63 1022.68 1022.72 1022.77 1022.81 1022.85 1022.90 1022.97 1023.05 1023.15 1023.25 1023.35 1023.43 1023.49
1019.07 1018.79 1018.53 1018.32 1018.16 1018.08 1018.08 1018.19 1018.38 1018.66 1019.01 1019.40 1019.80 1020.20 1020.57 1020.90 1021.17 1021.39 1021.56 1021.70 1021.80 1021.88 1021.94 1021.98 1022.01 1022.02 1022.03 1022.03 1022.03 1022.03 1022.06 1022.11 1022.19 1022.29 1022.41 1022.53 1022.62 1022.69
1019.48 1019.20 1018.94 1018.71 1018.52 1018.40 1018.37 1018.41 1018.55 1018.75 1019.01 1019.32 1019.64 1019.95 1020.24 1020.50 1020.72 1020.90 1021.05 1021.16 1021.25 1021.31 1021.36 1021.39 1021.39 1021.38 1021.35 1021.32 1021.29 1021.27 1021.28 1021.32 1021.39 1021.50 1021.61 1021.73 1021.83 1021.88
1019.92 1019.65 1019.38 1019.13 1018.91 1018.75 1018.66 1018.65 1018.72 1018.86 1019.05 1019.28 1019.54 1019.79 1020.02 1020.23 1020.40 1020.55 1020.67 1020.76 1020.83 1020.87 1020.90 1020.91 1020.89 1020.85 1020.80 1020.75 1020.69 1020.66 1020.65 1020.67 1020.73 1020.82 1020.92 1021.01 1021.09 1021.11
1020.38 1020.12 1019.84 1019.56 1019.31 1019.11 1018.97 1018.90 1018.91 1019.00 1019.14 1019.31 1019.52 1019.72 1019.91 1020.09 1020.23 1020.35 1020.45 1020.51 1020.56 1020.59 1020.60 1020.59 1020.55 1020.50 1020.43 1020.36 1020.29 1020.23 1020.20 1020.20 1020.23 1020.27 1020.33 1020.39 1020.41 1020.38
1020.83 1020.57 1020.28 1019.98 1019.69 1019.45 1019.26 1019.15 1019.11 1019.15 1019.25 1019.39 1019.56 1019.74 1019.91 1020.06 1020.19 1020.28 1020.36 1020.41 1020.43 1020.44 1020.44 1020.41 1020.36 1020.30 1020.23 1020.14 1020.06 1019.98 1019.92 1019.88 1019.86 1019.85 1019.84 1019.82 1019.77 1019.67
1021.21 1020.95 1020.65 1020.33 1020.02 1019.74 1019.51 1019.36 1019.29 1019.30 1019.36 1019.49 1019.63 1019.79 1019.95 1020.09 1020.20 1020.28 1020.33 1020.36 1020.37 1020.37 1020.34 1020.31 1020.26 1020.19 1020.11 1020.02 1019.93 1019.83 1019.74 1019.65 1019.56 1019.48 1019.39 1019.28 1019.13 1018.95
1021.47 1021.21 1020.91 1020.57 1020.23 1019.93 1019.68 1019.51 1019.41 1019.39 1019.44 1019.55 1019.68 1019.83 1019.97 1020.10 1020.19 1020.25 1020.29 1020.30 1020.29 1020.27 1020.24 1020.20 1020.15 1020.09 1020.01 1019.92 1019.82 1019.70 1019.57 1019.43 1019.27 1019.10 1018.91 1018.69 1018.45 1018.17
1021.56 1021.30 1020.99 1020.65 1020.31 1020.00 1019.74 1019.55 1019.44 1019.41 1019.45 1019.54 1019.67 1019.80 1019.93 1020.04 1020.11 1020.15 1020.17 1020.16 1020.13 1020.10 1020.06 1020.02 1019.97 1019.92 1019.85 1019.77 1019.65 1019.51 1019.34 1019.14 1018.91 1018.64 1018.35 1018.03 1017.68 1017.31
1021.44 1021.19 1020.89 1020.56 1020.23 1019.93 1019.68 1019.49 1019.38 1019.35 1019.38 1019.46 1019.57 1019.69 1019.80 1019.89 1019.94 1019.95 1019.94 1019.91 1019.86 1019.82 1019.77 1019.73 1019.69 1019.64 1019.58 1019.50 1019.37 1019.21 1019.00 1018.73 1018.42 1018.07 1017.67 1017.25 1016.81 1016.36
1021.10 1020.87 1020.59 1020.30 1020.00 1019.72 1019.50 1019.33 1019.24 1019.21 1019.24 1019.32 1019.42 1019.52 1019.61 1019.66 1019.68 1019.67 1019.63 1019.57 1019.50 1019.44 1019.38 1019.34 1019.30 1019.26 1019.20 1019.11 1018.97 1018.78 1018.52 1018.19 1017.81 1017.37 1016.88 1016.37 1015.85 1015.33
1020.59 1020.39 1020.15 1019.90 1019.65 1019.42 1019.24 1019.11 1019.04 1019.03 1019.07 1019.15 1019.24 1019.32 1019.38 1019.41 1019.40 1019.35 1019.28 1019.19 1019.10 1019.02 1018.95 1018.89 1018.85 1018.79 1018.72 1018.62 1018.45 1018.22 1017.91 1017.53 1017.07 1016.55 1015.99 1015.41 1014.83 1014.26
1019.94 1019.78 1019.60 1019.41 1019.22 1019.06 1018.93 1018.85 1018.83 1018.84 1018.90 1018.98 1019.06 1019.13 1019.17 1019.17 1019.13 1019.05 1018.95 1018.83 1018.72 1018.61 1018.52 1018.44 1018.37 1018.30 1018.20 1018.06 1017.86 1017.58 1017.22 1016.77 1016.25 1015.67 1015.05 1014.41 1013.79 1013.20
1019.23 1019.12 1019.00 1018.88 1018.76 1018.67 1018.61 1018.59 1018.61 1018.67 1018.75 1018.84 1018.92 1018.97 1018.99 1018.97 1018.91 1018.80 1018.67 1018.53 1018.39 1018.25 1018.13 1018.02 1017.92 1017.81 1017.67 1017.48 1017.23 1016.89 1016.47 1015.96 1015.39 1014.75 1014.09 1013.43 1012.79 1012.20
1018.51 1018.46 1018.40 1018.35 1018.30 1018.29 1018.30 1018.34 1018.41 1018.51 1018.61 1018.71 1018.80 1018.85 1018.86 1018.82 1018.73 1018.61 1018.46 1018.29 1018.12 1017.95 1017.80 1017.65 1017.51 1017.35 1017.15 1016.90 1016.59 1016.19 1015.71 1015.15 1014.52 1013.85 1013.16 1012.49 1011.85 1011.28
Thickness
5624 5625 5626 5627 5627 5627 5627 5626 5622 5616 5612 5610 5611 5611 5613 5614 5614 5615 5616 5616 5618 5618 5618 5617 5616 5616 5614 5613 5611 5610 5608 5606 5603 5602 5600 5597 5594 5592
5616 5617 5617 5618 5619 5620 5620 5620 5619 5616 5608 5605 5604 5604 5605 5606 5606 5606 5606 5607 5607 5607 5607 5606 5606 5605 5604 5602 5601 5599 5598 5596 5594 5592 5590 5587 5585 5583
5607 5608 5609 5610 5611 5612 5612 5612 5612 5610 5604 5598 5597 5597 5597 5598 5598 5598 5598 5598 5597 5597 5596 5596 5595 5595 5594 5593 5592 5590 5589 5587 5585 5583 5581 5579 5577 5575
5598 5599 5600 5602 5602 5603 5603 5604 5604 5603 5600 5594 5590 5590 5590 5591 5591 5591 5591 5591 5590 5589 5588 5587 5587 5586 5586 5585 5584 5582 5581 5579 5577 5576 5574 5573 5571 5568
5589 5590 5591 5592 5592 5594 5595 5595 5596 5596 5594 5590 5586 5584 5584 5585 5585 5584 5585 5585 5584 5582 5581 5580 5580 5579 5579 5578 5577 5576 5574 5573 5572 5570 5569 5567 5565 5563
5581 5582 5582 5583 5584 5585 5586 5587 5588 5587 5586 5584 5581 5579 5579 5579 5579 5578 5578 5579 5579 5578 5577 5576 5575 5574 5573 5573 5572 5571 5570 5569 5568 5566 5564 5563 5561 5560
5574 5574 5574 5575 5576 5578 5579 5579 5580 5580 5579 5577 5576 5574 5573 5573 5573 5574 5574 5574 5574 5575 5573 5573 5571 5570 5570 5569 5569 5568 5566 5566 5565 5563 5562 5560 5559 5557
5567 5568 5569 5569 5569 5570 5571 5573 5574 5574 5574 5573 5572 5571 5570 5570 5571 5571 5571 5570 5569 5572 5571 5570 5571 5570 5569 5568 5568 5567 5566 5564 5563 5562 5560 5558 5557 5555
5561 5563 5565 5564 5564 5565 5566 5568 5568 5570 5570 5571 5569 5568 5567 5569 5568 5568 5568 5568 5568 5571 5570 5569 5570 5570 5571 5571 5569 5568 5566 5564 5563 5561 5560 5558 5556 5555
5556 5557 5558 5557 5558 5559 5562 5564 5565 5565 5566 5566 5566 5567 5567 5567 5566 5567 5567 5568 5569 5571 5570 5567 5570 5570 5572 5571 5570 5568 5566 5565 5563 5561 5560 5558 5557 5555
5551 5551 5552 5552 5553 5555 5558 5559 5560 5559 5560 5561 5563 5563 5564 5564 5564 5565 5565 5565 5565 5568 5570 5568 5569 5570 5570 5570 5570 5569 5567 5565 5564 5563 5561 5560 5558 5556
5546 5546 5546 5547 5549 5551 5553 5554 5555 5556 5558 5559 5560 5562 5563 5563 5564 5564 5564 5563 5563 5565 5569 5568 5567 5568 5567 5570 5571 5569 5567 5566 5565 5564 5563 5561 5559 5555
5545 5544 5543 5544 5546 5548 5549 5551 5551 5552 5555 5558 5560 5562 5563 5564 5564 5564 5564 5564 5563 5563 5567 5568 5567 5567 5566 5567 5570 5570 5569 5568 5568 5567 5565 5564 5562 5558
5542 5542 5542 5543 5545 5547 5549 5550 5551 5553 5555 5558 5560 5562 5563 5564 5565 5566 5566 5566 5566 5566 5568 5568 5567 5566 5565 5565 5567 5571 5571 5571 5570 5569 5569 5568 5565 5562
5540 5541 5542 5544 5545 5548 5550 5551 5553 5554 5557 5558 5560 5562 5564 5566 5566 5567 5567 5568 5568 5569 5570 5570 5569 5569 5568 5566 5567 5570 5571 5572 5572 5572 5571 5569 5567 5565
5540 5542 5544 5546 5548 5550 5552 5555 5556 5558 5560 5560 5562 5564 5566 5567 5567 5568 5568 5569 5569 5570 5573 5573 5572 5571 5569 5570 5569 5570 5571 5571 5573 5573 5572 5570 5569 5567
5541 5545 5548 5551 5553 5555 5558 5560 5561 5562 5563 5564 5565 5566 5567 5568 5569 5571 5571 5571 5570 5571 5572 5574 5575 5575 5574 5572 5571 5572 5572 5573 5573 5573 5571 5570 5569 5569
5544 5548 5553 5556 5559 5561 5563 5565 5566 5567 5568 5569 5569 5570 5570 5571 5571 5573 5573 5573 5573 5574 5574 5576 5576 5576 5575 5576 5576 5575 5574 5574 5574 5574 5572 5569 5569 5570
5548 5553 5557 5561 5564 5566 5568 5569 5570 5571 5572 5572 5572 5572 5573 5573 5574 5574 5575 5575 5576 5577 5578 5579 5578 5576 5573 5574 5579 5579 5576 5575 5575 5574 5572 5570 5569 5570
5557 5561 5564 5567 5569 5571 5573 5573 5574 5574 5574 5574 5575 5575 5576 5576 5576 5577 5577 5578 5578 5579 5579 5580 5580 5579 5576 5576 5578 5581 5580 5577 5575 5574 5573 5573 5572 5571
5568 5570 5572 5574 5575 5576 5577 5577 5577 5577 5578 5577 5577 5578 5578 5578 5578 5579 5580 5580 5579 5579 5579 5581 5583 5584 5583 5581 5579 5581 5583 5582 5579 5576 5574 5572 5570 5568
5575 5577 5579 5580 5580 5581 5581 5581 5582 5581 5581 5581 5581 5581 5581 5581 5581 5581 5582 5581 5582 5582 5583 5585 5586 5585 5582 5580 5579 5581 5583 5584 5583 5581 5577 5574 5568 5565
5582 5583 5584 5585 5585 5586 5586 5587 5586 5586 5586 5586 5586 5585 5585 5584 5584 5583 5583 5584 5584 5584 5584 5585 5586 5585 5584 5583 5582 5582 5583 5583 5582 5581 5579 5577 5573 5570